Location: Gorze? G�rny
(49.8500°N, 19.5000°E)
Time: 13:06:26
(UTC+00:00)

Cosmos 1378 Rocket - Pass Details

Date: 13 May 2021
Orbit: 602 x 626 km, 82.5° (Epoch: 22 June)

Event Time Altitude Azimuth Distance (km) Brightness Sun altitude
Exits shadow 23:06:11 35° 121° (ESE) 988 4.4 -21.2°
Maximum altitude 23:07:03 39° 92° (E) 915 4.4 -21.2°
Drops below altitude 10° 23:11:05 10° 24° (NNE) 1,961 7.2 -21.1°
Sets 23:13:24 0° 17° (NNE) 2,869 8.5 -21.1°
